User: anonymous   Login
Location: Myra
(43.4160°N, 88.0960°W)
Time: 13:10:41
(UTC-05:00)
Language:

SL-8 R/B - Orbit

View from above orbital plane
View from above orbital plane
View from above satellite
View from above satellite

Ground track
Ground track

The orbit data is extracted from the following two-line orbital elements,

1 33066U 08031G   16148.14195354  .00000007  00000-0  34006-4 0  9996
2 33066  48.4429 115.9708 0008371 284.7062 166.0099 14.69432703425988
Epoch (UTC): 27 May 2016 03:24:24
Eccentricity: 0.0008371
inclination: 48.4429°
perigee height: 657 km
apogee height: 669 km
right ascension of ascending node: 115.9708°
argument of perigee: 284.7062°
revolutions per day: 14.69432703
mean anomaly at epoch: 166.0099°
orbit number at epoch: 42598

The dashed part of the orbit path shows where the satellite is in the earth's shadow,  

DLR